Snowfall_Accumulation
0.4 0.4 0.2 0.2 0.3 0.4 0.4 0.6 1.0 0.9 0.3 0.2 0.1 0.0 0.1 0.2 0.1 0.1 0.2 0.2 0.0 0.1 0.1 0.1 0.1 0.0 0.0 0.0 0.0 0.0 0.0 0.0 0.0 0.0 0.0 0.0 0.0 0.0
0.4 0.3 0.3 0.2 0.3 0.4 0.4 0.4 0.7 1.1 0.9 0.3 0.3 0.3 0.1 0.2 0.1 0.1 0.1 0.1 0.1 0.1 0.1 0.1 0.1 0.1 0.1 0.1 0.1 0.0 0.0 0.0 0.0 0.0 0.0 0.0 0.0 0.0
0.6 0.5 0.5 0.4 0.3 0.4 0.5 0.4 0.6 0.7 1.0 0.3 0.3 0.3 0.3 0.2 0.1 0.1 0.1 0.1 0.1 0.1 0.2 0.2 0.2 0.2 0.2 0.2 0.1 0.1 0.1 0.1 0.0 0.0 0.0 0.0 0.0 0.0
0.5 0.5 0.5 0.5 0.5 0.5 0.5 0.7 0.6 0.7 1.4 1.3 0.5 0.5 0.5 0.5 0.3 0.2 0.1 0.1 0.1 0.0 0.1 0.3 0.2 0.3 0.3 0.3 0.2 0.2 0.1 0.1 0.1 0.0 0.0 0.0 0.0 0.0
0.4 0.6 0.6 0.6 0.8 0.7 1.0 0.8 0.7 0.8 1.1 1.6 0.9 0.5 0.4 0.4 0.6 0.2 0.2 0.1 0.1 0.0 0.1 0.1 0.2 0.3 0.4 0.4 0.4 0.4 0.3 0.3 0.2 0.1 0.1 0.1 0.1 0.1
0.7 0.7 1.0 1.0 1.2 1.0 1.2 1.3 1.4 1.5 1.7 2.0 2.0 1.4 1.2 0.8 0.9 1.0 0.4 0.2 0.2 0.2 0.1 0.1 0.2 0.3 0.4 0.4 0.4 0.4 0.5 0.5 0.6 0.5 0.4 0.3 0.2 0.2
1.0 0.7 0.9 0.7 0.8 1.1 1.6 2.0 2.5 3.0 3.5 3.8 3.3 2.5 1.5 1.6 1.5 1.2 1.4 0.6 0.5 0.2 0.1 0.1 0.1 0.2 0.2 0.2 0.3 0.3 0.4 0.6 0.8 0.8 0.8 0.6 0.4 0.2
1.1 1.1 0.7 0.8 0.8 1.0 1.5 1.9 3.2 4.9 5.8 5.9 5.2 3.8 2.2 1.7 1.6 1.8 2.4 3.2 2.3 0.6 0.7 0.5 0.3 0.3 0.3 0.2 0.3 0.4 0.6 0.9 1.1 1.3 1.1 0.9 0.8 0.6
1.7 1.4 1.2 1.1 1.0 1.0 1.1 1.7 2.2 2.9 3.9 4.9 5.0 3.2 2.2 2.1 3.3 4.9 4.7 5.1 4.0 1.4 1.4 1.6 0.5 0.5 0.3 0.3 0.4 0.5 0.7 0.8 1.0 1.2 1.3 1.2 1.0 1.0
1.6 1.4 1.5 1.3 1.2 1.6 2.4 3.0 2.0 1.5 1.6 1.8 2.4 2.3 2.3 2.2 4.2 6.7 6.7 5.2 2.7 1.4 1.2 3.0 1.3 1.1 0.4 0.4 0.4 0.4 0.8 1.0 1.4 1.3 1.4 1.2 1.2 1.1
1.4 1.3 1.6 1.5 1.5 2.9 4.6 4.4 2.5 1.3 0.9 1.4 1.9 2.0 1.9 2.1 2.6 6.1 8.0 8.5 6.2 2.1 1.9 2.9 2.1 1.9 1.3 1.0 0.5 0.7 0.9 1.1 1.5 1.3 1.7 1.5 1.3 1.2
1.6 1.4 1.5 1.6 2.3 3.8 4.7 4.7 3.7 1.8 1.9 1.5 1.3 0.9 1.0 1.1 1.6 4.3 9.1 14.2 11.4 6.9 2.6 4.1 4.6 5.2 6.3 2.7 2.2 1.7 1.4 1.3 1.4 1.3 1.6 1.5 1.6 1.9
2.6 2.0 1.0 1.9 3.1 3.7 3.8 3.4 3.6 4.0 3.4 2.6 2.0 1.7 1.6 1.6 1.5 2.5 5.3 13.1 17.5 11.9 4.1 8.6 10.6 7.7 11.4 8.1 3.6 2.7 2.7 3.0 2.5 1.8 1.6 1.8 1.7 2.3
3.5 2.1 1.8 2.7 3.0 2.9 2.7 2.8 3.2 3.4 3.3 3.5 3.2 3.0 3.1 3.2 3.1 3.4 4.4 6.9 10.3 11.7 7.9 11.1 17.4 13.7 16.3 13.2 7.1 4.7 3.2 4.0 4.8 3.7 2.6 1.8 1.8 1.9
3.0 3.1 3.1 2.9 2.8 2.5 2.2 2.8 3.2 3.8 4.8 5.9 5.1 3.9 3.8 4.2 4.3 5.2 5.6 5.8 6.5 6.9 8.7 9.4 13.2 14.5 17.4 17.0 12.1 9.2 9.4 6.3 6.1 5.7 4.3 3.1 2.5 2.6
4.1 3.4 3.0 2.4 2.6 2.9 2.9 3.3 3.3 4.3 6.5 8.0 7.0 5.4 4.9 5.7 7.5 8.7 10.4 10.9 12.8 10.9 9.3 9.1 9.8 14.0 16.8 13.5 14.5 13.3 12.6 12.8 9.4 7.5 6.0 4.7 3.0 2.7
5.0 4.2 4.1 4.0 4.0 4.2 3.9 4.0 4.3 4.8 6.4 7.5 8.3 8.8 8.6 9.7 11.3 13.1 14.6 14.8 14.8 12.7 10.4 8.2 7.9 8.6 11.0 12.7 14.2 13.2 12.9 12.9 10.0 7.6 7.6 7.7 4.4 3.2
6.2 6.4 5.5 5.0 5.2 5.0 5.3 5.3 5.1 6.1 7.6 9.3 10.6 11.7 13.5 14.2 14.4 14.0 15.0 15.9 14.7 11.7 10.1 8.4 8.7 9.7 9.0 8.1 10.3 13.3 13.6 13.4 9.6 8.4 8.8 10.6 8.1 4.5
7.2 6.9 6.1 6.2 6.4 6.6 6.8 7.7 7.3 7.3 9.0 11.5 13.8 15.6 16.4 16.7 16.7 16.1 14.7 13.8 12.2 9.7 8.6 7.8 9.3 15.0 16.3 11.0 7.6 9.6 15.5 15.8 11.5 9.5 9.1 9.9 10.0 7.0
6.9 8.1 8.1 7.6 7.9 8.4 9.0 9.8 10.5 10.8 11.8 14.3 15.8 17.1 18.3 19.1 17.7 15.3 13.2 12.6 11.7 9.6 7.5 6.2 7.9 13.9 20.9 18.6 14.5 11.1 10.8 15.9 17.5 15.6 10.2 7.6 7.0 4.8
8.4 8.9 9.1 9.0 8.6 9.7 10.7 12.2 13.7 15.3 15.7 17.6 18.1 18.5 19.1 19.5 16.7 12.9 11.4 10.1 10.7 10.9 9.9 7.2 6.1 7.7 12.7 17.0 15.8 11.1 11.4 9.9 12.6 19.0 18.6 16.8 13.2 9.7
7.6 8.1 8.5 8.9 9.3 10.8 12.0 13.5 15.1 16.0 17.3 18.2 19.0 18.5 17.3 16.4 14.6 11.4 10.5 10.7 10.3 9.7 8.9 7.1 5.9 7.4 11.6 16.5 14.6 10.7 10.6 10.3 8.2 7.3 10.2 15.4 24.3 24.7
7.7 8.4 9.3 9.4 10.2 11.7 13.5 14.7 15.3 16.2 17.8 19.1 19.0 17.5 15.5 13.2 10.7 10.3 10.3 10.5 10.6 9.7 9.1 8.7 7.9 8.1 9.5 11.3 12.7 11.2 10.2 9.6 9.3 9.8 11.8 8.5 8.7 10.3